St. Charles, IL

5:50 AM CDT on June 23, 2017 (GMT -0500)
Saint Charles County Smartt

Weather History for KSET - November, 2012

Change the Weather History Date:

Thursday, November 1, 2012

  Actual Average (KSTL) Record (KSTL)
Temperature  
Mean Temperature 46 °F -  
Max Temperature 63 °F 64 °F 86 °F (1937)
Min Temperature 30 °F 46 °F 26 °F (1954)
Degree Days  
Heating Degree Days 18    
Moisture  
Dew Point 33 °F    
Average Humidity 60    
Maximum Humidity 85    
Minimum Humidity 37    
Precipitation  
Precipitation 0.00 in - - ()
Sea Level Pressure  
Sea Level Pressure 29.95 in    
Wind  
Wind Speed 3 mph (WSW)    
Max Wind Speed 15 mph    
Max Gust Speed 23 mph    
Visibility 9 miles    
Events      
Averages and records for this station are not official NWS values.
T = Trace of Precipitation, MM = Missing Value Source: NWS Daily Summary

Daily Weather History Graph

Daily Weather History Graph

Search for Another Location

Airport or City:

Trip Planner

Search our weather history database for the weather conditions in past years. The results will help you decide how hot, cold, wet, or windy it might be!

Date:

Astronomy

Nov. 01, 2012 Rise Set
Actual Time 7:29 AM CDT 6:00 PM CDT
Civil Twilight 7:01 AM CDT 6:28 PM CDT
Nautical Twilight 6:30 AM CDT 6:59 PM CDT
Astronomical Twilight 5:59 AM CDT 7:30 PM CDT
Moon 7:58 PM CDT (11/1) 10:01 AM CDT (11/1)
Length of Visible Light 11h 26m
Length of Day
10h 31m
Waning Gibbous, 93% of the Moon is Illuminated
Nov 1
Waning Gibbous
Nov 6
Last Quarter
Nov 13
New
Nov 20
First Quarter
Nov 28
Full

Hourly Weather History & Observations

Time (CDT) Temp. Windchill Dew Point Humidity Pressure Visibility Wind Dir Wind Speed Gust Speed Precip Events Conditions
12:54 AM 33.1 °F 28.7 °F 23.0 °F 66% 29.99 in 10.0 mi WSW 4.6 mph - N/A   Clear
1:54 AM 35.1 °F 32.2 °F 25.0 °F 67% 29.99 in 10.0 mi SW 3.5 mph - N/A   Clear
2:54 AM 34.0 °F - 25.0 °F 70% 29.99 in 10.0 mi Calm Calm - N/A   Clear
4:54 AM 30.9 °F - 25.0 °F 79% 29.99 in 10.0 mi Calm Calm - N/A   Clear
5:54 AM 30.0 °F 25.2 °F 25.0 °F 82% 30.00 in 10.0 mi SW 4.6 mph - N/A   Clear
6:54 AM 33.1 °F - 26.1 °F 75% 30.01 in 10.0 mi Calm Calm - N/A   Partly Cloudy
8:54 AM 39.0 °F - 30.0 °F 70% 30.02 in 10.0 mi Calm Calm - N/A   Mostly Cloudy
9:54 AM 45.0 °F 43.5 °F 28.0 °F 52% 30.02 in 10.0 mi West 3.5 mph - N/A   Scattered Clouds
10:54 AM 50.0 °F - 30.0 °F 46% 30.02 in 10.0 mi WNW 3.5 mph - N/A   Overcast
11:54 AM 55.0 °F - 30.9 °F 40% 30.00 in 10.0 mi West 4.6 mph - N/A   Scattered Clouds
12:54 PM 57.9 °F - 34.0 °F 41% 29.96 in 10.0 mi SW 4.6 mph - N/A   Overcast
1:54 PM 59.0 °F - 34.0 °F 39% 29.93 in 4.0 mi WSW 4.6 mph - N/A   Haze
2:54 PM 61.0 °F - 36.0 °F 39% 29.90 in 6.0 mi SSW 6.9 mph - N/A   Haze
3:54 PM 63.0 °F - 36.0 °F 37% 29.89 in 6.0 mi WSW 6.9 mph - N/A   Haze
4:54 PM 61.0 °F - 37.0 °F 41% 29.89 in 5.0 mi WSW 5.8 mph - N/A   Haze
5:54 PM 57.9 °F - 41.0 °F 53% 29.87 in 10.0 mi South 4.6 mph - N/A   Overcast
6:54 PM 52.0 °F - 39.9 °F 63% 29.88 in 10.0 mi Calm Calm - N/A   Clear
7:54 PM 48.9 °F - 39.0 °F 69% 29.88 in 10.0 mi NNE 3.5 mph - N/A   Clear
8:54 PM 44.1 °F 42.5 °F 39.0 °F 82% 29.89 in 10.0 mi North 3.5 mph - N/A   Clear
9:54 PM 46.9 °F - 39.0 °F 74% 29.88 in 10.0 mi Calm Calm - N/A   Clear
10:54 PM 44.1 °F - 39.9 °F 85% 29.89 in 10.0 mi Calm Calm - N/A   Clear
11:54 PM 53.1 °F - 39.0 °F 59% 29.90 in 10.0 mi North 15.0 mph 23.0 mph N/A   Clear